SCP
0 0 0 0 0 0 0 0 0 0 0 0 0 0 0 0 0 0 0 0 0 0 0 0 0 0 0 0 0 0 0 0 0 0 0 0 0 0 0 0 0 0 0
0 0 0 0 0 0 0 0 0 0 0 0 0 0 0 0 0 0 0 0 0 0 0 0 0 0 0 0 0 0 0 0 0 0 0 0 0 0 0 0 0 0 0
0 0 0 0 0 0 0 0 0 0 0 0 0 0 0 0 0 0 0 0 0 0 0 0 0 0 0 0 0 0 0 0 0 0 0 0 0 0 0 0 0 0 0
0 0 0 0 0 0 0 0 0 0 0 0 0 0 0 0 0 0 0 0 0 0 0 0 0 0 0 0 0 0 0 0 0 0 0 0 0 0 0 0 0 0 0
0 0 0 0 0 0 0 0 0 0 0 0 0 0 0 0 0 0 0 0 0 0 0 0 0 0 0 0 0 0 0 0 0 0 0 0 0 0 0 0 0 0 0
0 0 0 0 0 0 0 0 0 0 0 0 0 0 0 0 0 0 0 0 0 0 0 0 0 0 0 0 0 0 0 0 0 0 0 0 0 0 0 0 0 0 0
0 0 0 0 0 0 0 0 0 0 0 0 0 0 0 0 0 0 0 0 0 0 0 0 0 0 0 0 0 0 0 0 0 0 0 0 0 0 0 0 0 0 0
0 0 0 0 0 0 0 0 0 0 0 0 0 0 0 0 0 0 0 0 0 0 0 0 0 0 0 0 0 0 0 0 0 0 0 0 0 0 0 0 0 0 0
0 0 0 0 0 0 0 0 0 0 0 0 0 0 0 0 0 0 0 0 0 0 0 0 0 0 0 0 0 0 0 0 0 0 0 0 0 0 0 0 0 0 0
0 0 0 0 0 0 0 0 0 0 0 0 0 0 0 0 0 0 0 0 0 0 0 0 0 0 0 0 0 0 0 0 0 0 0 0 0 0 0 0 0 0 0
0 0 0 0 0 0 0 0 0 0 0 0 0 0 0 0 0 0 0 0 0 0 0 0 0 0 0 0 0 0 0 0 0 0 0 0 0 0 0 0 0 0 0
0 0 0 0 0 0 0 0 0 0 0 0 0 0 0 0 0 0 0 0 0 0 0 0 0 0 0 0 0 0 0 0 0 0 0 0 0 0 0 0 0 0 0
0 0 0 0 0 0 0 0 0 0 0 0 0 0 0 0 0 0 0 0 0 0 0 0 0 0 0 0 0 0 0 0 0 0 0 0 0 0 0 0 0 0 0
0 0 0 0 0 0 0 0 0 0 0 0 0 0 0 0 0 0 0 0 0 0 0 0 0 0 0 0 0 0 0 0 0 0 0 0 0 0 0 0 0 0 0
0 0 0 0 0 0 0 0 0 0 0 0 0 0 0 0 0 0 0 0 0 0 0 0 0 0 0 0 0 0 0 0 0 0 0 0 0 0 0 0 0 0 0
0 0 0 0 0 0 0 0 0 0 0 0 0 0 0 0 0 0 0 0 0 0 0 0 0 0 0 0 0 0 0 0 0 0 0 0 0 0 0 0 0 0 0
0 0 0 0 0 0 0 0 0 0 0 0 0 0 0 0 0 0 0 0 0 0 0 0 0 0 0 0 0 0 0 0 0 0 0 0 0 0 0 0 0 0 0
0 0 0 0 0 0 0 0 0 0 0 0 0 0 0 0 0 0 0 0 0 0 0 0 0 0 0 0 0 0 0 0 0 0 0 0 0 0 0 0 0 0 0
0 0 0 0 0 0 0 0 0 0 0 0 0 0 0 0 0 0 0 0 0 0 0 0 0 0 0 0 0 0 0 0 0 0 0 0 0 0 0 0 0 0 0
0 0 0 0 0 0 0 0 0 0 0 0 0 0 0 0 0 0 0 0 0 0 0 0 0 0 0 0 0 0 0 0 0 0 0 0 0 0 0 0 0 0 0
0 0 0 0 0 0 0 0 0 0 0 0 0 0 0 0 0 0 0 0 0 0 0 0 0 0 0 0 0 0 0 0 0 0 0 0 0 0 0 0 0 0 0
0 0 0 0 0 0 0 0 0 0 0 0 0 0 0 0 0 0 0 0 0 0 0 0 0 0 0 0 0 0 0 0 0 0 0 0 0 0 0 0 0 0 0
0 0 0 0 0 0 0 0 0 0 0 0 0 0 0 0 0 0 0 0 0 0 0 0 0 0 0 0 0 0 0 0 0 0 0 0 0 0 0 0 0 0 0
-0 0 0 0 0 0 0 0 0 0 0 0 0 0 0 0 0 0 0 0 0 0 0 0 0 0 0 0 0 0 0 0 0 0 0 0 0 0 0 0 0 0 0
0 0 0 0 0 0 0 0 0 0 0 0 0 0 0 0 0 0 0 0 0 0 0 0 0 0 0 0 0 0 0 0 0 0 0 0 0 0 0 0 0 0 0
0 0 0 0 0 0 0 0 0 0 0 0 0 0 0 0 0 0 0 0 0 0 0 0 0 0 0 0 0 0 0 0 0 0 0 0 0 0 0 0 0 0 0
Wind_Speed_500mb
42 38 41 44 46 43 46 52 52 54 55 58 67 74 71 68 63 53 47 46 43 48 52 54 56 65 58 57 56 53 53 53 52 54 58 57 54 51 52 48 41 37 36
52 53 51 52 46 47 51 51 53 53 56 66 60 58 55 56 55 46 35 37 36 44 47 48 45 57 64 62 57 57 56 57 53 55 59 51 47 54 53 43 40 30 32
77 64 56 57 50 50 49 49 50 51 50 49 48 45 43 42 41 35 34 38 40 44 47 38 39 47 53 58 54 54 55 56 52 51 49 20 22 35 34 34 27 17 24
87 78 64 59 51 46 46 48 47 42 45 43 41 40 34 33 39 38 35 35 40 42 43 41 40 38 42 49 62 46 50 45 41 38 36 38 48 8 11 18 13 25 17
60 69 67 58 48 45 44 41 39 41 40 36 35 33 28 30 36 37 40 43 43 43 48 45 43 38 39 39 44 50 51 51 33 31 29 22 18 23 13 23 18 26 27
50 49 52 48 45 42 39 36 37 35 32 30 28 24 22 29 33 32 34 38 37 39 44 44 35 30 27 32 32 33 36 36 30 31 29 20 23 25 20 24 30 32 26
47 52 55 50 43 39 34 34 32 31 29 27 24 21 25 29 29 32 34 36 32 34 37 33 34 39 38 40 40 39 34 28 25 23 24 22 24 26 23 27 33 36 34
46 48 47 42 39 35 34 33 33 31 27 24 23 22 22 30 33 35 37 36 36 34 34 35 30 30 29 26 24 22 22 21 19 19 20 20 19 19 21 23 26 27 19
50 49 47 42 39 36 32 31 30 27 25 24 24 26 25 26 31 34 35 34 34 31 28 26 23 21 20 19 18 18 18 16 14 15 13 13 12 12 12 15 19 19 12
51 51 46 43 38 34 33 31 28 26 26 27 28 27 25 26 28 28 28 27 25 24 23 22 21 20 20 20 20 20 19 19 17 15 12 8 3 3 5 7 12 18 19
52 50 45 40 38 37 35 29 30 30 32 32 31 31 30 28 26 26 25 25 24 24 23 23 22 22 22 22 21 20 19 17 15 11 9 10 12 9 7 7 12 20 26
54 49 46 45 44 42 40 35 35 37 39 37 36 36 35 33 31 30 29 29 29 28 27 26 25 24 22 22 22 21 20 18 17 17 17 15 13 8 9 12 16 24 34
44 47 50 51 50 47 48 45 43 45 41 41 42 42 41 38 37 36 35 33 31 30 30 28 26 25 24 24 25 25 25 24 21 17 12 8 7 7 12 17 22 27 33
32 43 52 56 56 59 59 57 57 55 47 48 49 49 46 44 43 41 39 36 35 33 31 30 28 26 25 27 27 26 23 19 14 10 6 3 4 11 16 22 25 29 34
58 63 68 73 75 73 71 69 67 64 58 57 56 54 52 50 48 46 43 39 37 35 33 31 29 27 29 30 28 25 22 18 15 12 5 1 6 12 19 22 26 30 36
74 75 80 86 88 84 83 82 79 75 68 64 61 60 59 57 53 49 45 42 39 37 35 34 33 32 34 33 33 29 25 20 15 10 7 5 7 10 17 21 27 31 33
82 87 91 88 91 93 92 95 89 82 75 70 67 67 65 60 56 52 48 44 41 39 38 36 35 34 33 36 32 28 24 20 15 11 7 7 9 11 13 18 23 28 31
80 85 87 89 92 91 95 98 94 86 81 77 74 73 70 65 59 55 50 46 44 41 38 38 37 36 33 36 32 28 23 18 15 12 10 11 12 15 15 18 21 22 26
77 84 87 86 89 92 90 87 87 88 89 86 80 77 73 70 65 60 55 51 47 44 44 42 39 38 33 32 28 23 19 17 15 14 13 13 15 21 20 21 22 24 27
58 64 67 72 79 82 80 80 84 88 95 93 86 77 73 71 67 62 58 53 48 44 45 42 41 39 35 29 28 24 19 19 17 17 16 16 17 20 23 23 26 29 30
44 48 51 61 71 74 75 81 83 88 91 88 81 76 75 73 68 64 61 57 57 52 48 47 43 41 37 30 28 25 21 19 19 19 17 16 16 18 23 24 28 32 34
54 52 51 56 60 67 70 77 82 82 84 80 78 76 72 70 67 64 60 57 52 51 53 50 46 44 41 36 28 25 22 19 18 19 17 16 16 19 22 25 30 33 35
62 58 53 54 57 62 69 74 80 77 74 72 71 69 69 66 65 63 61 60 57 56 55 50 49 47 41 34 29 24 20 18 17 17 17 17 18 18 23 27 31 33 35
63 58 55 54 61 63 66 68 67 67 68 70 69 67 66 66 65 62 61 58 57 57 55 53 49 44 38 34 29 24 21 18 17 16 17 19 19 22 25 28 31 35 37
64 58 55 55 55 58 62 61 59 62 65 67 69 67 67 66 64 61 59 53 49 51 49 44 41 40 37 32 27 23 22 20 13 15 18 21 23 26 28 30 31 33 35
58 59 57 55 56 56 59 60 60 62 66 68 66 65 66 64 60 56 50 45 41 42 44 41 38 37 33 32 25 22 25 21 16 19 21 24 27 29 32 33 32 34 37
Wind_Direction_500mb
235 215 225 245 250 253 263 264 254 249 257 266 273 274 272 270 268 263 265 274 269 266 263 265 265 263 262 265 267 269 267 270 274 278 282 286 284 283 287 290 292 291 293
250 248 245 248 244 255 263 258 255 262 270 275 272 273 273 268 266 266 266 270 264 261 268 266 267 266 264 264 266 265 266 266 271 272 280 284 286 289 287 284 278 281 285
248 243 242 243 243 248 252 255 262 270 271 273 274 276 275 266 261 253 245 254 253 253 257 257 269 259 260 263 265 265 265 267 270 273 270 273 281 286 266 256 278 295 313
251 246 240 236 234 238 244 255 265 267 277 277 280 282 275 255 249 239 240 252 256 257 259 269 274 268 267 265 260 262 261 265 271 274 278 276 287 322 322 305 294 298 288
249 243 235 231 233 242 246 255 260 274 275 277 282 282 272 248 241 234 242 251 256 260 262 259 261 258 262 255 253 256 264 263 253 248 264 258 264 281 288 287 291 303 317
240 226 214 220 228 238 246 254 270 268 269 276 280 274 255 242 235 238 244 253 254 250 255 248 245 250 238 269 275 272 272 269 264 262 269 256 259 280 281 285 290 297 309
227 215 214 215 223 237 248 266 265 264 266 271 271 265 237 226 235 240 243 233 224 238 247 254 269 269 271 270 266 263 259 251 244 249 260 258 269 274 275 286 297 306 321
207 206 209 216 225 239 257 257 255 255 258 261 263 259 248 236 238 242 245 246 248 253 259 261 258 257 257 254 251 247 247 247 244 241 247 254 268 280 292 299 306 313 318
209 212 214 221 234 248 249 251 249 251 255 258 260 258 252 240 236 237 240 244 246 244 243 241 236 231 229 229 228 226 221 216 221 229 228 236 243 259 285 301 316 336 358
212 215 219 227 241 249 249 245 246 249 254 256 255 253 250 243 238 234 232 230 228 224 221 220 220 222 224 227 228 225 221 220 211 196 202 207 177 106 61 29 359 354 359
224 225 229 240 247 246 248 247 248 250 251 251 250 247 243 236 229 225 223 221 221 220 222 225 227 227 224 220 218 216 210 203 192 182 158 145 126 122 108 53 9 355 350
238 237 242 245 249 250 246 244 246 249 245 242 241 237 233 228 224 221 220 222 226 228 227 225 225 224 221 217 212 203 191 185 177 167 158 151 136 102 50 24 6 354 349
241 240 241 247 252 254 252 249 248 248 244 244 241 236 230 227 226 228 230 231 232 233 234 231 225 220 216 213 203 195 185 176 166 155 138 107 80 29 14 7 359 353 348
266 264 256 256 260 259 255 252 250 247 244 242 239 235 231 230 231 232 233 233 234 235 232 228 223 221 216 207 197 188 181 176 169 162 162 128 32 11 2 356 350 346 340
260 259 260 262 262 255 252 250 250 247 245 241 238 236 234 234 233 232 232 231 232 233 231 228 226 221 212 202 193 184 181 185 188 184 185 31 2 358 351 345 339 338 334
260 264 263 262 258 255 254 251 248 245 242 241 239 237 236 234 232 230 230 233 233 232 230 227 223 214 209 203 197 192 192 195 198 205 213 261 322 342 338 331 328 327 328
264 269 267 266 265 260 261 255 248 242 239 239 237 236 235 233 232 232 233 230 229 228 225 219 215 211 205 195 194 196 197 199 205 218 241 277 305 319 323 324 323 322 320
268 268 268 267 268 265 260 256 249 241 238 237 235 234 232 231 230 230 228 226 225 222 219 216 215 213 208 199 200 203 203 207 213 225 245 267 294 305 310 315 310 310 313
274 274 275 277 276 271 264 258 250 240 236 235 234 233 232 231 230 228 226 223 218 216 219 214 216 217 217 206 204 207 211 220 227 236 248 272 291 294 302 308 312 319 321
272 272 277 279 277 272 264 254 248 240 236 236 235 234 232 231 229 226 222 219 216 221 221 217 218 219 220 213 210 213 218 227 234 243 253 265 279 295 310 319 318 317 318
291 285 281 278 277 271 261 251 245 242 238 233 231 231 231 229 227 223 219 217 217 213 213 215 215 217 221 220 220 216 220 231 237 244 253 267 288 302 310 316 313 313 318
299 293 288 283 277 268 256 251 246 239 233 229 228 229 229 227 223 221 218 211 215 214 217 213 210 209 213 217 220 223 224 225 237 248 258 274 290 300 305 310 313 316 317
297 295 289 279 273 266 257 248 244 237 230 226 228 228 225 224 221 217 217 220 216 213 213 214 212 213 213 220 227 237 235 239 243 254 262 271 283 292 303 308 308 307 307
296 289 285 277 266 259 251 245 244 237 228 226 222 224 225 221 219 221 219 216 211 212 215 213 212 212 213 216 222 234 246 243 248 257 269 281 291 300 304 303 303 306 310
297 292 283 276 268 259 251 246 240 235 231 228 224 219 222 222 219 215 214 209 213 218 216 214 215 217 216 218 226 239 255 259 266 271 282 291 298 300 300 301 304 307 309
294 288 281 272 265 257 248 245 240 237 234 230 226 221 216 212 209 206 197 197 204 210 212 209 213 214 214 224 222 220 237 272 287 281 286 294 297 298 300 302 306 311 312
Wind_Speed_850mb
42 38 41 44 46 43 46 52 52 54 55 58 67 74 71 68 63 53 47 46 43 48 52 54 56 65 58 57 56 53 53 53 52 54 58 57 54 51 52 48 41 37 36
52 53 51 52 46 47 51 51 53 53 56 66 60 58 55 56 55 46 35 37 36 44 47 48 45 57 64 62 57 57 56 57 53 55 59 51 47 54 53 43 40 30 32
77 64 56 57 50 50 49 49 50 51 50 49 48 45 43 42 41 35 34 38 40 44 47 38 39 47 53 58 54 54 55 56 52 51 49 20 22 35 34 34 27 17 24
87 78 64 59 51 46 46 48 47 42 45 43 41 40 34 33 39 38 35 35 40 42 43 41 40 38 42 49 62 46 50 45 41 38 36 38 48 8 11 18 13 25 17
60 69 67 58 48 45 44 41 39 41 40 36 35 33 28 30 36 37 40 43 43 43 48 45 43 38 39 39 44 50 51 51 33 31 29 22 18 23 13 23 18 26 27
50 49 52 48 45 42 39 36 37 35 32 30 28 24 22 29 33 32 34 38 37 39 44 44 35 30 27 32 32 33 36 36 30 31 29 20 23 25 20 24 30 32 26
47 52 55 50 43 39 34 34 32 31 29 27 24 21 25 29 29 32 34 36 32 34 37 33 34 39 38 40 40 39 34 28 25 23 24 22 24 26 23 27 33 36 34
46 48 47 42 39 35 34 33 33 31 27 24 23 22 22 30 33 35 37 36 36 34 34 35 30 30 29 26 24 22 22 21 19 19 20 20 19 19 21 23 26 27 19
50 49 47 42 39 36 32 31 30 27 25 24 24 26 25 26 31 34 35 34 34 31 28 26 23 21 20 19 18 18 18 16 14 15 13 13 12 12 12 15 19 19 12
51 51 46 43 38 34 33 31 28 26 26 27 28 27 25 26 28 28 28 27 25 24 23 22 21 20 20 20 20 20 19 19 17 15 12 8 3 3 5 7 12 18 19
52 50 45 40 38 37 35 29 30 30 32 32 31 31 30 28 26 26 25 25 24 24 23 23 22 22 22 22 21 20 19 17 15 11 9 10 12 9 7 7 12 20 26
54 49 46 45 44 42 40 35 35 37 39 37 36 36 35 33 31 30 29 29 29 28 27 26 25 24 22 22 22 21 20 18 17 17 17 15 13 8 9 12 16 24 34
44 47 50 51 50 47 48 45 43 45 41 41 42 42 41 38 37 36 35 33 31 30 30 28 26 25 24 24 25 25 25 24 21 17 12 8 7 7 12 17 22 27 33
32 43 52 56 56 59 59 57 57 55 47 48 49 49 46 44 43 41 39 36 35 33 31 30 28 26 25 27 27 26 23 19 14 10 6 3 4 11 16 22 25 29 34
58 63 68 73 75 73 71 69 67 64 58 57 56 54 52 50 48 46 43 39 37 35 33 31 29 27 29 30 28 25 22 18 15 12 5 1 6 12 19 22 26 30 36
74 75 80 86 88 84 83 82 79 75 68 64 61 60 59 57 53 49 45 42 39 37 35 34 33 32 34 33 33 29 25 20 15 10 7 5 7 10 17 21 27 31 33
82 87 91 88 91 93 92 95 89 82 75 70 67 67 65 60 56 52 48 44 41 39 38 36 35 34 33 36 32 28 24 20 15 11 7 7 9 11 13 18 23 28 31
80 85 87 89 92 91 95 98 94 86 81 77 74 73 70 65 59 55 50 46 44 41 38 38 37 36 33 36 32 28 23 18 15 12 10 11 12 15 15 18 21 22 26
77 84 87 86 89 92 90 87 87 88 89 86 80 77 73 70 65 60 55 51 47 44 44 42 39 38 33 32 28 23 19 17 15 14 13 13 15 21 20 21 22 24 27
58 64 67 72 79 82 80 80 84 88 95 93 86 77 73 71 67 62 58 53 48 44 45 42 41 39 35 29 28 24 19 19 17 17 16 16 17 20 23 23 26 29 30
44 48 51 61 71 74 75 81 83 88 91 88 81 76 75 73 68 64 61 57 57 52 48 47 43 41 37 30 28 25 21 19 19 19 17 16 16 18 23 24 28 32 34
54 52 51 56 60 67 70 77 82 82 84 80 78 76 72 70 67 64 60 57 52 51 53 50 46 44 41 36 28 25 22 19 18 19 17 16 16 19 22 25 30 33 35
62 58 53 54 57 62 69 74 80 77 74 72 71 69 69 66 65 63 61 60 57 56 55 50 49 47 41 34 29 24 20 18 17 17 17 17 18 18 23 27 31 33 35
63 58 55 54 61 63 66 68 67 67 68 70 69 67 66 66 65 62 61 58 57 57 55 53 49 44 38 34 29 24 21 18 17 16 17 19 19 22 25 28 31 35 37
64 58 55 55 55 58 62 61 59 62 65 67 69 67 67 66 64 61 59 53 49 51 49 44 41 40 37 32 27 23 22 20 13 15 18 21 23 26 28 30 31 33 35
58 59 57 55 56 56 59 60 60 62 66 68 66 65 66 64 60 56 50 45 41 42 44 41 38 37 33 32 25 22 25 21 16 19 21 24 27 29 32 33 32 34 37
Wind_Direction_850mb
235 215 225 245 250 253 263 264 254 249 257 266 273 274 272 270 268 263 265 274 269 266 263 265 265 263 262 265 267 269 267 270 274 278 282 286 284 283 287 290 292 291 293
250 248 245 248 244 255 263 258 255 262 270 275 272 273 273 268 266 266 266 270 264 261 268 266 267 266 264 264 266 265 266 266 271 272 280 284 286 289 287 284 278 281 285
248 243 242 243 243 248 252 255 262 270 271 273 274 276 275 266 261 253 245 254 253 253 257 257 269 259 260 263 265 265 265 267 270 273 270 273 281 286 266 256 278 295 313
251 246 240 236 234 238 244 255 265 267 277 277 280 282 275 255 249 239 240 252 256 257 259 269 274 268 267 265 260 262 261 265 271 274 278 276 287 322 322 305 294 298 288
249 243 235 231 233 242 246 255 260 274 275 277 282 282 272 248 241 234 242 251 256 260 262 259 261 258 262 255 253 256 264 263 253 248 264 258 264 281 288 287 291 303 317
240 226 214 220 228 238 246 254 270 268 269 276 280 274 255 242 235 238 244 253 254 250 255 248 245 250 238 269 275 272 272 269 264 262 269 256 259 280 281 285 290 297 309
227 215 214 215 223 237 248 266 265 264 266 271 271 265 237 226 235 240 243 233 224 238 247 254 269 269 271 270 266 263 259 251 244 249 260 258 269 274 275 286 297 306 321
207 206 209 216 225 239 257 257 255 255 258 261 263 259 248 236 238 242 245 246 248 253 259 261 258 257 257 254 251 247 247 247 244 241 247 254 268 280 292 299 306 313 318
209 212 214 221 234 248 249 251 249 251 255 258 260 258 252 240 236 237 240 244 246 244 243 241 236 231 229 229 228 226 221 216 221 229 228 236 243 259 285 301 316 336 358
212 215 219 227 241 249 249 245 246 249 254 256 255 253 250 243 238 234 232 230 228 224 221 220 220 222 224 227 228 225 221 220 211 196 202 207 177 106 61 29 359 354 359
224 225 229 240 247 246 248 247 248 250 251 251 250 247 243 236 229 225 223 221 221 220 222 225 227 227 224 220 218 216 210 203 192 182 158 145 126 122 108 53 9 355 350
238 237 242 245 249 250 246 244 246 249 245 242 241 237 233 228 224 221 220 222 226 228 227 225 225 224 221 217 212 203 191 185 177 167 158 151 136 102 50 24 6 354 349
241 240 241 247 252 254 252 249 248 248 244 244 241 236 230 227 226 228 230 231 232 233 234 231 225 220 216 213 203 195 185 176 166 155 138 107 80 29 14 7 359 353 348
266 264 256 256 260 259 255 252 250 247 244 242 239 235 231 230 231 232 233 233 234 235 232 228 223 221 216 207 197 188 181 176 169 162 162 128 32 11 2 356 350 346 340
260 259 260 262 262 255 252 250 250 247 245 241 238 236 234 234 233 232 232 231 232 233 231 228 226 221 212 202 193 184 181 185 188 184 185 31 2 358 351 345 339 338 334
260 264 263 262 258 255 254 251 248 245 242 241 239 237 236 234 232 230 230 233 233 232 230 227 223 214 209 203 197 192 192 195 198 205 213 261 322 342 338 331 328 327 328
264 269 267 266 265 260 261 255 248 242 239 239 237 236 235 233 232 232 233 230 229 228 225 219 215 211 205 195 194 196 197 199 205 218 241 277 305 319 323 324 323 322 320
268 268 268 267 268 265 260 256 249 241 238 237 235 234 232 231 230 230 228 226 225 222 219 216 215 213 208 199 200 203 203 207 213 225 245 267 294 305 310 315 310 310 313
274 274 275 277 276 271 264 258 250 240 236 235 234 233 232 231 230 228 226 223 218 216 219 214 216 217 217 206 204 207 211 220 227 236 248 272 291 294 302 308 312 319 321
272 272 277 279 277 272 264 254 248 240 236 236 235 234 232 231 229 226 222 219 216 221 221 217 218 219 220 213 210 213 218 227 234 243 253 265 279 295 310 319 318 317 318
291 285 281 278 277 271 261 251 245 242 238 233 231 231 231 229 227 223 219 217 217 213 213 215 215 217 221 220 220 216 220 231 237 244 253 267 288 302 310 316 313 313 318
299 293 288 283 277 268 256 251 246 239 233 229 228 229 229 227 223 221 218 211 215 214 217 213 210 209 213 217 220 223 224 225 237 248 258 274 290 300 305 310 313 316 317
297 295 289 279 273 266 257 248 244 237 230 226 228 228 225 224 221 217 217 220 216 213 213 214 212 213 213 220 227 237 235 239 243 254 262 271 283 292 303 308 308 307 307
296 289 285 277 266 259 251 245 244 237 228 226 222 224 225 221 219 221 219 216 211 212 215 213 212 212 213 216 222 234 246 243 248 257 269 281 291 300 304 303 303 306 310
297 292 283 276 268 259 251 246 240 235 231 228 224 219 222 222 219 215 214 209 213 218 216 214 215 217 216 218 226 239 255 259 266 271 282 291 298 300 300 301 304 307 309
294 288 281 272 265 257 248 245 240 237 234 230 226 221 216 212 209 206 197 197 204 210 212 209 213 214 214 224 222 220 237 272 287 281 286 294 297 298 300 302 306 311 312